Overview Statistics Trail Chart Weather Telemetry Raw packets
 

This is the latest recevied weather packets stored in our database for station/object EA7URS-13. If no packets are shown the sender has not sent any weather packets the latest 10 day(s).

<< 77 78 79 80 81 82 83 >>
Time Temp. Humidity Pressure Rain* Wind** Luminosity Snow
1788101623 34.44° C 22% 1008.7 hPa 0 mm - 475 W/m² -
1788101311 33.89° C 25% 1008.5 hPa 0 mm - 501 W/m² -
1788101010 33.89° C 25% 1008.5 hPa 0 mm - 501 W/m² -
1788100709 33.89° C 25% 1008.7 hPa 0 mm - 522 W/m² -
1788100408 33.89° C 25% 1008.7 hPa 0 mm - 522 W/m² -
1788100107 33.89° C 26% 1008.9 hPa 0 mm - 546 W/m² -
1788099806 33.89° C 26% 1008.9 hPa 0 mm - 546 W/m² -
1788099505 33.33° C 26% 1009 hPa 0 mm - 572 W/m² -
1788099204 33.33° C 26% 1009 hPa 0 mm - 572 W/m² -
1788098903 33.33° C 26% 1009.3 hPa 0 mm - 591 W/m² -
1788098602 33.33° C 26% 1009.3 hPa 0 mm - 591 W/m² -
1788098301 33.89° C 26% 1009.4 hPa 0 mm - 610 W/m² -
1788098000 33.89° C 26% 1009.4 hPa 0 mm - 610 W/m² -
1788097699 33.89° C 24% 1009.3 hPa 0 mm - 628 W/m² -
1788097397 33.89° C 24% 1009.3 hPa 0 mm - 628 W/m² -
1788097096 33.89° C 25% 1009.4 hPa 0 mm - 644 W/m² -
1788096795 33.89° C 25% 1009.4 hPa 0 mm - 644 W/m² -
1788096494 32.78° C 26% 1009.6 hPa 0 mm - 659 W/m² -
1788096193 32.78° C 26% 1009.6 hPa 0 mm - 659 W/m² -
1788095892 32.78° C 27% 1009.9 hPa 0 mm - 671 W/m² -
1788095591 32.78° C 27% 1009.9 hPa 0 mm - 671 W/m² -
1788095290 32.78° C 28% 1009.9 hPa 0 mm - 679 W/m² -
1788094989 32.78° C 28% 1009.9 hPa 0 mm - 679 W/m² -
1788094688 32.22° C 27% 1009.7 hPa 0 mm - 691 W/m² -
1788094386 32.22° C 27% 1009.7 hPa 0 mm - 691 W/m² -

* Rain latest hour (hover to see other rain measurements)
** Current wind speed in m/s (hover to see current wind gust speed)